Theta_e
293 288 285 288 289 291 290 288 287 290 294 291 290 291 294 296 296 296 298 299 300 303 309 317 316 316 317 320 323 327 341 340 341 341 340 338 340 337 337 337 340 341 344 342
289 285 292 294 294 292 290 287 286 290 294 291 290 291 294 295 295 295 296 298 299 302 304 310 315 314 313 316 326 327 337 344 345 343 343 336 335 331 333 335 337 341 345 343
285 290 295 294 291 290 289 287 288 289 293 292 290 288 291 295 296 297 297 298 299 299 301 306 312 315 313 315 323 327 331 341 345 343 334 332 332 333 333 333 334 339 345 346
288 293 292 291 290 292 286 294 293 291 288 281 289 280 287 290 292 294 296 296 297 299 301 303 306 312 313 314 322 327 328 332 335 333 333 330 329 328 330 331 335 341 344 345
287 289 288 288 292 294 290 294 291 290 287 283 285 280 285 289 289 292 294 295 297 298 300 301 304 308 313 317 324 328 329 328 329 330 331 330 328 329 332 334 336 340 340 344
290 293 294 294 296 294 295 291 289 287 283 277 282 281 283 285 289 290 295 298 301 303 304 304 305 306 308 315 325 325 325 326 328 329 329 327 328 331 334 334 335 337 339 340
288 289 295 297 290 292 289 284 277 276 276 276 285 282 284 290 293 296 298 299 301 302 302 303 304 305 306 310 321 326 325 325 325 326 329 330 329 331 333 335 338 337 337 335
280 279 289 295 290 286 285 284 277 275 275 277 286 279 284 294 298 299 300 300 301 301 302 304 306 307 308 307 316 323 324 324 324 326 327 332 330 332 333 337 340 340 340 339
282 283 292 293 293 290 285 281 286 281 282 278 280 284 290 295 296 298 298 299 298 300 301 304 308 308 310 310 312 320 321 322 322 325 328 331 333 332 336 338 341 340 339 339
287 281 290 292 293 292 288 290 279 279 274 274 279 281 282 290 293 295 295 296 297 300 302 305 307 307 311 310 311 312 316 319 320 323 328 332 335 337 338 340 340 339 338 340
287 284 285 289 286 284 285 283 284 282 280 273 276 278 291 292 293 293 295 298 299 301 303 306 306 307 307 320 321 321 316 317 322 327 332 333 336 340 341 341 340 338 339 338
290 285 280 284 291 292 290 286 287 276 276 281 281 280 293 293 294 296 297 298 299 301 304 307 307 306 307 319 320 321 320 323 328 335 337 337 338 340 340 341 340 339 339 338
290 282 278 280 284 288 286 288 287 286 284 280 278 279 295 295 295 297 296 299 300 302 305 308 307 306 307 313 321 321 324 328 335 338 338 337 338 340 338 337 339 339 339 338
296 285 282 277 282 284 284 288 289 286 282 281 282 284 289 293 295 296 300 301 301 303 305 305 305 307 308 321 327 325 330 335 338 339 338 337 337 335 334 335 335 336 336 335
290 282 286 287 289 289 288 288 289 286 286 282 285 286 290 293 294 297 300 302 302 304 305 304 307 309 317 320 323 329 335 337 338 337 337 334 334 334 334 334 332 331 331 330
289 283 286 285 289 289 287 288 290 289 289 288 287 286 293 295 296 297 299 302 303 304 305 307 307 316 319 320 319 324 331 335 337 336 334 335 334 333 333 332 330 328 327 326
286 284 284 281 287 287 282 288 290 290 291 288 285 287 292 292 295 296 297 299 300 303 306 305 306 309 316 321 321 326 327 334 335 335 334 334 333 331 330 331 328 324 324 325
287 288 287 282 282 274 286 293 293 291 291 293 291 292 293 294 296 298 300 300 302 302 303 305 306 307 311 321 322 324 324 330 333 333 332 333 331 329 329 327 325 323 325 326
293 288 284 281 275 283 286 291 289 287 287 293 291 293 295 297 297 296 302 304 300 301 303 305 307 308 314 322 322 321 323 329 332 332 331 331 330 328 325 323 323 323 324 323
291 291 286 283 278 272 281 292 295 293 283 292 293 293 293 294 287 291 297 300 300 302 303 305 306 309 311 321 324 322 322 329 329 330 329 330 330 327 323 323 323 322 322 322
286 286 282 283 280 283 291 295 296 280 282 293 294 294 293 291 294 297 299 299 301 302 303 306 306 308 311 321 325 322 321 327 329 329 329 330 329 326 326 324 323 323 323 323
285 282 282 284 280 275 295 292 288 292 295 297 296 296 295 296 298 298 299 299 300 301 303 305 305 307 312 318 324 322 324 327 328 327 328 328 328 330 329 325 324 325 323 322
283 288 287 287 282 290 295 296 299 299 297 297 298 298 298 297 298 299 298 299 300 301 302 304 305 308 312 322 325 324 324 327 326 326 327 329 328 327 327 326 324 323 322 321
291 293 287 287 292 294 296 300 299 300 299 300 298 297 297 297 298 297 299 299 300 301 302 304 305 307 309 321 324 324 328 328 327 326 326 328 327 325 326 327 326 324 321 321
289 291 289 290 294 296 298 299 299 299 298 298 299 298 299 298 298 299 300 300 302 302 304 305 305 306 311 320 323 328 330 327 325 325 325 325 324 319 312 307 312 322 320 321
291 290 288 286 295 296 297 300 299 298 297 297 297 297 299 299 299 300 300 301 302 302 304 304 306 308 313 319 324 328 330 326 325 323 323 321 319 318 314 312 308 295 295 299
Wind_Speed
2 4 6 10 9 10 6 5 4 3 6 4 10 15 14 7 7 8 9 13 13 14 17 19 12 11 9 7 7 9 14 15 11 5 5 3 7 3 4 4 7 8 8 11
7 3 5 6 5 3 6 6 6 6 6 6 7 22 17 7 6 7 9 12 12 15 15 18 19 10 9 10 9 9 14 14 13 11 10 5 6 4 4 5 7 9 10 10
3 8 6 6 3 6 5 5 8 9 12 7 5 19 16 15 8 7 8 10 14 11 14 17 20 20 12 10 10 12 14 15 16 16 6 3 4 2 3 3 3 6 9 10
5 5 3 6 3 4 3 6 8 10 8 4 4 18 12 10 13 12 13 13 13 16 14 15 17 21 17 14 10 13 16 14 14 13 10 8 7 6 4 5 4 4 8 10
9 4 7 3 3 2 6 6 4 8 11 3 5 5 9 8 17 17 17 12 12 11 15 15 17 17 22 12 9 11 15 15 11 10 11 8 5 5 3 3 5 6 6 8
10 3 3 5 3 2 1 3 6 5 2 4 5 6 17 5 12 7 9 14 14 16 21 20 22 19 18 14 10 10 9 11 10 11 9 10 11 8 6 4 4 4 5 5
4 1 2 2 3 6 6 5 5 6 3 6 5 8 14 9 9 3 6 11 15 13 15 19 20 21 19 10 12 12 15 14 10 9 10 11 11 10 10 7 6 7 5 3
2 6 5 2 1 5 4 6 5 4 4 7 12 8 8 2 5 2 5 7 11 13 14 18 20 20 23 20 15 14 15 17 14 13 12 10 10 8 7 8 8 8 9 8
3 4 9 6 4 3 3 5 6 4 6 7 6 8 7 3 6 6 9 10 11 13 16 18 21 21 24 21 17 17 16 17 16 16 12 10 11 9 10 10 10 8 8 7
3 6 4 3 6 3 2 3 4 3 4 5 4 7 9 6 9 12 17 15 16 16 18 16 17 20 25 16 13 11 13 17 14 11 11 11 12 11 9 10 11 11 9 10
3 2 6 5 3 4 5 1 3 2 5 4 4 7 5 6 4 11 15 14 17 17 21 15 16 21 24 9 7 9 9 11 11 13 11 10 10 10 10 10 11 12 12 11
1 2 4 9 15 9 6 6 4 4 4 4 4 12 5 4 6 6 11 12 16 18 21 15 14 21 19 18 4 6 7 9 9 11 11 11 10 9 10 10 11 12 12 11
2 1 5 8 5 5 3 3 6 3 2 8 5 9 2 5 6 7 8 13 16 19 20 19 23 26 21 18 7 6 7 8 10 11 11 9 9 10 10 10 11 12 12 11
7 5 8 7 8 5 14 17 14 9 5 9 13 16 6 10 12 7 8 8 14 16 14 11 24 26 18 13 10 6 7 9 10 11 11 11 10 11 11 11 11 12 11 12
7 6 7 12 16 16 20 21 18 17 17 9 14 7 10 9 11 10 7 5 11 16 16 22 21 20 8 11 13 10 8 12 11 11 12 10 11 12 13 12 11 10 9 10
2 5 2 15 14 17 19 17 15 17 16 5 7 11 5 8 11 12 10 8 13 15 18 19 19 16 10 12 16 14 7 9 13 12 12 14 15 15 14 11 10 9 8 8
5 4 4 17 5 12 11 5 1 2 6 5 8 5 5 7 13 11 15 13 14 16 17 17 17 15 14 11 10 5 6 4 12 14 13 15 15 15 12 12 11 8 8 8
9 3 3 5 4 3 4 2 3 4 10 8 9 10 8 11 12 13 13 14 11 16 17 18 16 16 15 5 9 12 12 14 13 15 14 15 15 14 12 11 9 8 8 10
11 5 3 3 3 8 6 5 4 1 9 9 8 10 10 14 12 17 7 7 15 15 14 13 14 14 10 5 6 6 10 17 14 16 16 15 14 12 11 10 9 6 8 7
7 4 2 1 2 6 6 3 4 3 8 6 7 9 13 10 11 14 8 7 17 16 12 14 15 14 12 9 9 6 1 12 14 16 16 14 13 12 10 10 8 5 7 7
3 2 7 6 5 8 4 6 4 2 8 5 7 11 13 11 14 21 14 12 14 13 13 15 12 12 10 8 4 15 13 14 13 15 14 14 13 11 11 9 6 7 8 8
6 5 4 3 5 8 6 3 6 6 5 7 9 13 15 16 19 21 16 12 19 14 13 15 12 10 10 8 5 11 8 4 13 13 14 13 12 10 9 11 6 9 9 9
3 4 2 6 7 6 7 8 8 8 12 17 9 9 10 16 20 19 16 14 12 12 14 14 9 10 8 6 11 2 13 8 13 14 14 13 11 10 10 11 9 7 8 8
4 4 4 6 4 8 14 11 8 8 7 5 7 9 12 18 17 15 15 15 12 12 13 13 10 10 8 2 4 7 12 13 15 14 13 13 13 9 7 6 7 8 7 7
7 7 6 6 9 14 10 8 13 7 5 7 8 9 15 22 18 16 15 14 12 13 13 9 8 7 10 11 9 10 4 14 16 14 12 11 10 10 8 7 4 4 4 8
4 5 3 6 9 10 13 13 6 7 10 12 12 15 13 17 18 14 15 14 13 13 11 6 6 7 7 11 13 8 4 16 17 14 10 9 9 8 7 7 5 15 9 4
Wind_Direction
294 105 223 241 213 237 258 246 280 252 263 291 283 279 284 292 315 315 304 304 299 295 295 276 233 236 238 238 219 206 191 193 173 162 161 185 216 204 224 218 196 211 190 191
10 294 275 257 288 320 324 313 301 269 282 294 288 287 289 284 270 280 286 296 298 296 299 291 275 249 230 231 201 193 235 179 184 186 190 177 180 192 180 197 212 199 192 184
179 257 302 328 348 7 1 354 342 320 323 313 295 287 297 296 282 278 283 279 290 286 295 301 293 270 239 214 206 192 207 205 189 189 158 100 91 60 137 185 202 197 186 182
257 260 330 308 344 42 334 340 326 323 332 274 272 281 280 301 303 300 293 286 282 289 292 290 293 285 261 239 199 201 199 207 199 176 172 167 174 176 199 187 188 178 170 181
255 268 295 291 166 130 228 318 291 283 275 281 256 259 277 310 293 292 293 294 299 296 294 288 290 286 271 244 211 200 206 196 199 182 186 173 169 190 160 178 175 164 158 170
240 254 134 186 248 219 325 335 319 300 183 229 197 208 276 249 260 289 316 331 353 342 335 311 298 290 279 257 208 188 188 209 187 179 184 179 190 184 158 177 168 149 152 158
329 352 173 110 336 345 59 44 344 333 351 236 240 268 264 295 324 51 333 324 328 329 322 312 305 309 284 248 234 204 186 203 205 190 191 195 197 179 180 176 164 152 149 148
187 336 23 63 238 239 233 173 164 259 291 304 304 257 257 92 87 286 287 276 303 316 318 310 299 299 284 268 225 208 198 205 195 201 206 197 193 187 181 171 165 173 171 173
9 259 320 294 3 81 263 221 217 241 269 264 241 283 293 318 308 294 284 308 313 315 312 306 306 306 300 254 218 205 195 203 202 199 200 187 193 179 182 169 162 165 161 161
351 294 245 309 324 298 53 288 15 13 289 275 272 282 261 296 295 328 319 329 315 315 309 309 311 308 310 250 208 196 195 199 204 201 197 195 187 178 161 156 158 163 158 154
78 140 284 354 260 284 349 341 64 125 164 214 300 248 225 270 311 295 308 319 320 317 304 302 307 324 320 280 177 168 175 186 192 190 186 166 172 163 157 162 161 163 154 150
156 194 276 260 293 263 169 199 170 131 261 243 255 274 312 184 256 295 313 318 323 312 302 264 336 328 302 292 207 224 186 170 178 168 157 160 158 143 150 164 160 156 151 159
179 307 317 332 356 357 211 221 212 219 138 223 239 264 2 268 268 233 275 340 330 321 323 13 319 316 296 291 274 207 201 173 156 148 147 145 142 146 153 149 149 149 146 143
157 195 190 216 248 238 282 277 274 242 232 249 241 278 288 303 289 254 265 310 341 313 333 354 297 288 289 309 315 248 178 160 153 144 141 135 139 141 141 136 132 139 144 141
155 227 219 245 259 272 273 278 271 258 253 238 275 233 254 260 267 277 256 296 316 308 324 287 291 306 284 360 6 336 167 149 143 140 128 126 133 134 125 125 123 125 130 133
204 257 254 285 270 262 282 281 267 259 264 279 269 274 226 280 298 306 290 301 303 296 286 308 319 339 8 18 12 346 297 149 132 130 134 132 133 126 123 121 123 124 116 128
188 211 271 269 331 306 283 261 140 330 291 265 266 243 268 277 289 305 303 295 295 294 304 321 332 340 342 1 13 343 337 238 132 133 138 134 134 133 138 134 140 123 128 128
221 181 217 289 17 261 253 160 233 237 271 250 289 269 279 282 291 294 286 272 290 318 325 324 331 334 340 336 34 28 277 290 144 137 142 137 134 136 136 134 132 127 128 133
187 132 247 259 203 284 292 191 175 181 283 254 253 279 283 290 305 286 304 320 316 311 318 313 321 320 327 316 72 43 306 258 151 145 143 134 137 139 132 129 135 120 123 118
85 82 189 291 247 251 238 170 159 142 271 216 215 258 279 300 290 283 281 318 315 313 309 314 325 319 338 331 323 238 259 247 153 151 139 137 137 137 135 134 127 132 129 128
169 196 227 230 237 275 220 156 189 77 260 194 211 246 260 264 253 282 300 311 305 301 313 318 321 312 323 345 336 298 315 193 162 135 136 141 141 140 137 133 129 128 122 126
192 181 209 219 218 273 151 148 195 215 276 269 267 256 254 265 275 275 289 312 303 305 314 308 306 309 327 334 341 267 271 268 143 137 142 142 137 141 141 134 127 130 132 129
285 178 229 215 227 235 207 215 229 254 268 280 261 278 260 269 275 283 297 300 290 297 293 291 296 306 331 335 311 25 304 274 137 138 138 133 129 128 132 133 130 124 130 135
307 319 248 346 284 333 311 269 244 243 234 261 257 235 264 267 272 290 291 284 285 279 286 288 298 307 318 283 303 327 272 181 135 130 130 129 120 111 109 118 133 137 137 133
264 312 269 259 287 321 306 303 285 273 274 271 277 278 279 282 285 284 281 281 282 277 274 276 286 298 309 324 292 241 283 151 130 125 122 119 117 110 91 64 58 132 118 149
212 231 257 276 285 275 271 294 359 341 305 289 273 284 274 283 288 282 273 279 270 271 286 288 290 296 315 327 313 338 290 143 130 126 129 133 126 122 127 132 102 44 40 83